Location: Unspecified
(52.4292°N, 19.3359°E)
Time: 22:55:26
(UTC+02:00)

SR - Pass Details

Date: 31 May 2024
Orbit: 580 x 858 km, 66.7° (Epoch: 12 June)

Event Time Altitude Azimuth Distance (km) Brightness Sun altitude
Rises 18:07:00 0° 249° (WSW) 3,134 ? 22.3°
Reaches altitude 10° 18:09:39 10° 259° (W) 2,166 ? 21.9°
Maximum altitude 18:14:03 33° 323° (NW) 1,126 ? 21.3°
Drops below altitude 10° 18:18:11 10° 28° (NNE) 2,024 ? 20.6°
Sets 18:20:36 0° 39° (NE) 2,897 ? 20.3°
